,,Stat6,,Stat2,,Stat8,,Stat9,,Stat10,,Wind1,,Wind1,
time,status,PA1M_AVG,status,PR1M_SUM,status,RH1M_AVG,status,SR1M_AVG,status,TA1M_AVG,status,W1dAve1m,status,W1sAve1m,
2007-03-18, 00:00:01,VALID,915.252,VALID,0,VALID,100,VALID,35.2862,VALID,18.9,VALID,80,VALID,0.0375381,
2007-03-18, 00:01:01,VALID,915.253,VALID,0,VALID,100,VALID,36.7465,VALID,18.9068,VALID,80,VALID,0,
2007-03-18, 00:02:01,VALID,915.259,VALID,0,VALID,100,VALID,38.2408,VALID,18.9167,VALID,80,VALID,0.0177083,
2007-03-18, 00:03:01,VALID,915.253,VALID,0,VALID,100,VALID,39.8031,VALID,18.9267,VALID,80,VALID,0.0960366,
2007-03-18, 00:04:00,VALID,915.241,VALID,0,VALID,100,VALID,41.3653,VALID,18.9133,VALID,80,VALID,0.180831,
2007-03-18, 00:05:00,VALID,915.254,VALID,0,VALID,100,VALID,43.0124,VALID,18.916,VALID,80,VALID,0.0132212,
2007-03-18, 00:06:00,VALID,915.244,VALID,0,VALID,100,VALID,44.6086,VALID,18.9325,VALID,80,VALID,0.0418527,
2007-03-18, 00:07:01,VALID,915.248,VALID,0,VALID,100,VALID,46.2728,VALID,18.942,VALID,80,VALID,0.034157,
2007-03-18, 00:08:00,VALID,915.26,VALID,0,VALID,100,VALID,47.9708,VALID,18.9517,VALID,80,VALID,0.164931,
2007-03-18, 00:09:00,VALID,915.269,VALID,0,VALID,100,VALID,49.584,VALID,18.9786,VALID,80,VALID,0.130952,
2007-03-18, 00:10:00,VALID,915.28,VALID,0,VALID,100,VALID,51.2991,VALID,18.9913,VALID,80,VALID,0,
2007-03-18, 00:11:01,VALID,915.291,VALID,0,VALID,100,VALID,53.0651,VALID,19.0171,VALID,80,VALID,0,
2007-03-18, 00:12:01,VALID,915.3,VALID,0,VALID,100,VALID,54.8141,VALID,19.0465,VALID,80,VALID,0,
2007-03-18, 00:13:01,VALID,915.314,VALID,0,VALID,100,VALID,56.5631,VALID,19.0754,VALID,80,VALID,0,
2007-03-18, 00:14:01,VALID,915.321,VALID,0,VALID,100,VALID,58.3801,VALID,19.1311,VALID,80,VALID,0,
2007-03-18, 00:15:00,VALID,915.342,VALID,0,VALID,100,VALID,60.248,VALID,19.176,VALID,80,VALID,0,
2007-03-18, 00:16:01,VALID,915.348,VALID,0,VALID,99.8566,VALID,62.048,VALID,19.1795,VALID,80,VALID,0,
2007-03-18, 00:17:00,VALID,915.349,VALID,0,VALID,99.8184,VALID,63.9498,VALID,19.2059,VALID,80,VALID,0,
2007-03-18, 00:18:01,VALID,915.362,VALID,0,VALID,99.6556,VALID,65.8856,VALID,19.2184,VALID,80,VALID,0,
2007-03-18, 00:19:01,VALID,915.374,VALID,0,VALID,99.5285,VALID,67.7705,VALID,19.2476,VALID,80,VALID,0,
2007-03-18, 00:20:01,VALID,915.392,VALID,0,VALID,99.236,VALID,69.7403,VALID,19.2805,VALID,80,VALID,0,
2007-03-18, 00:21:01,VALID,915.403,VALID,0,VALID,99.0084,VALID,71.6761,VALID,19.2963,VALID,80,VALID,0,
2007-03-18, 00:22:01,VALID,915.419,VALID,0,VALID,98.9359,VALID,73.6968,VALID,19.3549,VALID,80,VALID,0,
2007-03-18, 00:23:01,VALID,915.436,VALID,0,VALID,98.7922,VALID,75.5817,VALID,19.4031,VALID,80,VALID,0,
2007-03-18, 00:24:01,VALID,915.441,VALID,0,VALID,98.5977,VALID,77.5005,VALID,19.452,VALID,80,VALID,0,
2007-03-18, 00:25:00,VALID,915.45,VALID,0,VALID,98.426,VALID,79.4363,VALID,19.5171,VALID,80,VALID,0,
2007-03-18, 00:26:00,VALID,915.464,VALID,0,VALID,98.2111,VALID,81.3212,VALID,19.562,VALID,80,VALID,0,
2007-03-18, 00:27:00,VALID,915.472,VALID,0,VALID,97.6745,VALID,83.257,VALID,19.598,VALID,80,VALID,0,
2007-03-18, 00:28:00,VALID,915.483,VALID,0,VALID,97.6109,VALID,85.1928,VALID,19.6174,VALID,80,VALID,0.124238,
2007-03-18, 00:29:00,VALID,915.483,VALID,0,VALID,97.5893,VALID,87.2645,VALID,19.6631,VALID,80,VALID,0.062872,
2007-03-18, 00:30:00,VALID,915.494,VALID,0,VALID,97.4202,VALID,89.4211,VALID,19.6756,VALID,80,VALID,0.00104167,
2007-03-18, 00:31:00,VALID,915.511,VALID,0,VALID,97.6605,VALID,91.7474,VALID,19.7347,VALID,80,VALID,0,
2007-03-18, 00:32:00,VALID,915.52,VALID,0,VALID,97.5791,VALID,94.2776,VALID,19.7727,VALID,80,VALID,0.0134766,
2007-03-18, 00:33:00,VALID,915.536,VALID,0,VALID,97.5461,VALID,96.9605,VALID,19.8251,VALID,80,VALID,0,
2007-03-18, 00:34:00,VALID,915.55,VALID,0,VALID,97.527,VALID,99.7114,VALID,19.8832,VALID,80,VALID,0,
2007-03-18, 00:35:00,VALID,915.578,VALID,0,VALID,97.5422,VALID,102.751,VALID,19.9589,VALID,80,VALID,0.0565044,
2007-03-18, 00:36:00,VALID,915.583,VALID,0,VALID,96.9039,VALID,106.249,VALID,19.9873,VALID,80,VALID,0.192294,
2007-03-18, 00:37:00,VALID,915.597,VALID,0,VALID,96.7208,VALID,110.274,VALID,19.9908,VALID,80,VALID,0.178597,
2007-03-18, 00:38:00,VALID,915.59,VALID,0,VALID,96.7475,VALID,114.553,VALID,20.0293,VALID,78,VALID,0.311942,
2007-03-18, 00:39:00,VALID,915.61,VALID,0,VALID,96.1918,VALID,118.696,VALID,20.0298,VALID,73,VALID,0.298692,
2007-03-18, 00:40:00,VALID,915.631,VALID,0,VALID,96.1816,VALID,122.941,VALID,20.0265,VALID,73,VALID,0.343192,
2007-03-18, 00:41:00,VALID,915.653,VALID,0,VALID,96.0952,VALID,127.441,VALID,20.033,VALID,73,VALID,0.437128,
2007-03-18, 00:42:00,VALID,915.673,VALID,0,VALID,96.2121,VALID,132.247,VALID,20.0582,VALID,73,VALID,0.477679,
2007-03-18, 00:43:00,VALID,915.705,VALID,0,VALID,96.2007,VALID,137.799,VALID,20.0949,VALID,73,VALID,0.294727,
2007-03-18, 00:44:00,VALID,915.731,VALID,0,VALID,96.2516,VALID,144.014,VALID,20.1433,VALID,73,VALID,0.134993,
2007-03-18, 00:45:00,VALID,915.747,VALID,0,VALID,96.3012,VALID,150.892,VALID,20.2047,VALID,73,VALID,0.0644985,
2007-03-18, 00:46:00,VALID,915.785,VALID,0,VALID,95.9222,VALID,157.514,VALID,20.2799,VALID,66,VALID,0.389101,
2007-03-18, 00:47:00,VALID,915.804,VALID,0,VALID,95.6336,VALID,163.729,VALID,20.3383,VALID,55,VALID,0.515092,
2007-03-18, 00:48:00,VALID,915.818,VALID,0,VALID,95.219,VALID,170.012,VALID,20.3935,VALID,54,VALID,0.419744,
2007-03-18, 00:49:00,VALID,915.827,VALID,0,VALID,95.088,VALID,178.706,VALID,20.4619,VALID,13,VALID,0.682413,
2007-03-18, 00:50:00,VALID,915.853,VALID,0,VALID,94.8197,VALID,186.365,VALID,20.5422,VALID,28,VALID,0.644245,
2007-03-18, 00:51:00,VALID,915.868,VALID,0,VALID,94.5018,VALID,192.155,VALID,20.6274,VALID,27,VALID,0.804306,
2007-03-18, 00:52:00,VALID,915.886,VALID,0,VALID,94.1763,VALID,199.915,VALID,20.7342,VALID,42,VALID,0.692535,
2007-03-18, 00:53:00,VALID,915.894,VALID,0,VALID,93.2849,VALID,207.794,VALID,20.7994,VALID,40,VALID,0.925951,
2007-03-18, 00:54:00,VALID,915.922,VALID,0,VALID,93.0471,VALID,213.466,VALID,20.8446,VALID,42,VALID,0.916797,
2007-03-18, 00:55:00,VALID,915.947,VALID,0,VALID,92.9314,VALID,220.717,VALID,20.9327,VALID,45,VALID,0.907924,
2007-03-18, 00:56:00,VALID,915.969,VALID,0,VALID,92.5626,VALID,228.664,VALID,20.9909,VALID,43,VALID,0.357922,
2007-03-18, 00:57:00,VALID,915.984,VALID,0,VALID,93.0153,VALID,234.505,VALID,21.1302,VALID,43,VALID,0.54524,
2007-03-18, 00:58:00,VALID,915.999,VALID,0,VALID,92.2498,VALID,238.7,VALID,21.2733,VALID,43,VALID,0.632813,
2007-03-18, 00:59:00,VALID,915.994,VALID,0,VALID,92.1201,VALID,244.592,VALID,21.3737,VALID,43,VALID,0.640625,
2007-03-18, 01:00:00,VALID,916.02,VALID,0,VALID,91.9459,VALID,253.388,VALID,21.559,VALID,43,VALID,0.493118,
2007-03-18, 01:01:00,VALID,916.03,VALID,0,VALID,90.7811,VALID,262.812,VALID,21.718,VALID,43,VALID,0.383194,
2007-03-18, 01:02:00,VALID,916.049,VALID,0,VALID,89.849,VALID,270.42,VALID,21.8447,VALID,43,VALID,0.297805,
2007-03-18, 01:03:00,VALID,916.074,VALID,0,VALID,90.0576,VALID,280.846,VALID,22.033,VALID,40,VALID,0.474023,
2007-03-18, 01:04:00,VALID,916.099,VALID,0,VALID,88.3638,VALID,285.346,VALID,22.1953,VALID,28,VALID,0.810902,
2007-03-18, 01:05:00,VALID,916.115,VALID,0,VALID,86.6891,VALID,291.17,VALID,22.2316,VALID,28,VALID,0.600038,
2007-03-18, 01:06:00,VALID,916.117,VALID,0,VALID,86.8684,VALID,296.672,VALID,22.2998,VALID,28,VALID,0.77934,
2007-03-18, 01:07:00,VALID,916.131,VALID,0,VALID,87.3809,VALID,301.172,VALID,22.4105,VALID,33,VALID,0.440476,
2007-03-18, 01:08:00,VALID,916.137,VALID,0,VALID,87.4088,VALID,303.04,VALID,22.5666,VALID,33,VALID,0.367365,
2007-03-18, 01:09:00,VALID,916.133,VALID,0,VALID,86.3941,VALID,297.419,VALID,22.6316,VALID,8,VALID,0.749809,
2007-03-18, 01:10:00,VALID,916.159,VALID,0,VALID,84.9864,VALID,301.664,VALID,22.5858,VALID,7,VALID,0.60061,
2007-03-18, 01:11:00,VALID,916.165,VALID,0,VALID,85.3603,VALID,307.149,VALID,22.7196,VALID,34,VALID,1.2397,
2007-03-18, 01:12:00,VALID,916.172,VALID,0,VALID,83.3092,VALID,311.242,VALID,22.7975,VALID,27,VALID,1.50888,
2007-03-18, 01:13:00,VALID,916.197,VALID,0,VALID,82.9353,VALID,312.193,VALID,22.7585,VALID,24,VALID,1.15015,
2007-03-18, 01:14:00,VALID,916.21,VALID,0,VALID,83.5889,VALID,314.621,VALID,22.6998,VALID,27,VALID,1.26926,
2007-03-18, 01:15:00,VALID,916.237,VALID,0,VALID,84.1014,VALID,315.826,VALID,22.6882,VALID,25,VALID,1.29408,
2007-03-18, 01:16:00,VALID,916.239,VALID,0,VALID,84.3315,VALID,318.323,VALID,22.7012,VALID,24,VALID,1.06319,
2007-03-18, 01:17:00,VALID,916.244,VALID,0,VALID,84.7219,VALID,319.817,VALID,22.7497,VALID,16,VALID,0.825838,
2007-03-18, 01:18:00,VALID,916.263,VALID,0,VALID,84.6126,VALID,322.5,VALID,22.809,VALID,38,VALID,0.813802,
2007-03-18, 01:19:00,VALID,916.275,VALID,0,VALID,83.6716,VALID,329.428,VALID,22.9002,VALID,21,VALID,1.12623,
2007-03-18, 01:20:00,VALID,916.286,VALID,0,VALID,83.327,VALID,332.892,VALID,22.9714,VALID,29,VALID,1.1005,
2007-03-18, 01:21:00,VALID,916.288,VALID,0,VALID,82.0617,VALID,339.515,VALID,22.9487,VALID,20,VALID,1.24275,
2007-03-18, 01:22:00,VALID,916.29,VALID,0,VALID,82.447,VALID,347.801,VALID,22.9067,VALID,32,VALID,1.64234,
2007-03-18, 01:23:00,VALID,916.293,VALID,0,VALID,83.5368,VALID,356.275,VALID,22.8869,VALID,15,VALID,0.986979,
2007-03-18, 01:24:00,VALID,916.303,VALID,0,VALID,83.8102,VALID,356.224,VALID,22.9894,VALID,20,VALID,1.21337,
2007-03-18, 01:25:00,VALID,916.302,VALID,0,VALID,82.2944,VALID,359.943,VALID,23.0154,VALID,13,VALID,0.974888,
2007-03-18, 01:26:00,VALID,916.299,VALID,0,VALID,82.6047,VALID,371.388,VALID,23.1232,VALID,22,VALID,1.19876,
2007-03-18, 01:27:00,VALID,916.302,VALID,0,VALID,81.2288,VALID,378.265,VALID,23.1595,VALID,8,VALID,1.10096,
2007-03-18, 01:28:00,VALID,916.31,VALID,0,VALID,80.8232,VALID,383.971,VALID,23.1359,VALID,344,VALID,0.973895,
2007-03-18, 01:29:00,VALID,916.312,VALID,0,VALID,81.0495,VALID,392.002,VALID,23.0257,VALID,346,VALID,0.953497,
2007-03-18, 01:30:00,VALID,916.317,VALID,0,VALID,81.9104,VALID,402.361,VALID,23.0712,VALID,35,VALID,1.45573,
2007-03-18, 01:31:00,VALID,916.335,VALID,0,VALID,82.1914,VALID,416.234,VALID,23.1749,VALID,17,VALID,0.847479,
2007-03-18, 01:32:00,VALID,916.354,VALID,0,VALID,82.5627,VALID,427.238,VALID,23.2623,VALID,309,VALID,0.561435,
2007-03-18, 01:33:00,VALID,916.389,VALID,0,VALID,82.4864,VALID,437.205,VALID,23.2623,VALID,304,VALID,0.377308,
2007-03-18, 01:34:00,VALID,916.402,VALID,0,VALID,81.9041,VALID,445.203,VALID,23.3444,VALID,1,VALID,0.636719,
2007-03-18, 01:35:00,VALID,916.414,VALID,0,VALID,79.6546,VALID,449.177,VALID,23.4288,VALID,351,VALID,1.04004,
2007-03-18, 01:36:00,VALID,916.427,VALID,0,VALID,80.6401,VALID,450.484,VALID,23.5198,VALID,319,VALID,0.573602,
2007-03-18, 01:37:00,VALID,916.428,VALID,0,VALID,80.9783,VALID,453.235,VALID,23.5266,VALID,351,VALID,0.9375,
2007-03-18, 01:38:00,VALID,916.437,VALID,0,VALID,81.3039,VALID,456.699,VALID,23.6595,VALID,44,VALID,0.932478,
2007-03-18, 01:39:00,VALID,916.426,VALID,0,VALID,80.7189,VALID,459.705,VALID,23.8358,VALID,356,VALID,0.308854,
2007-03-18, 01:40:00,VALID,916.435,VALID,0,VALID,78.3982,VALID,462.592,VALID,23.7738,VALID,305,VALID,0.637821,
2007-03-18, 01:41:00,VALID,916.444,VALID,0,VALID,78.9196,VALID,467.873,VALID,23.7968,VALID,322,VALID,0.355841,
2007-03-18, 01:42:00,VALID,916.457,VALID,0,VALID,78.5559,VALID,471.456,VALID,23.8686,VALID,265,VALID,0.140439,
2007-03-18, 01:43:00,VALID,916.458,VALID,0,VALID,78.7645,VALID,474.665,VALID,23.9853,VALID,360,VALID,0.435865,
2007-03-18, 01:44:00,VALID,916.485,VALID,0,VALID,77.6899,VALID,474.207,VALID,24.1481,VALID,356,VALID,0.492733,
2007-03-18, 01:45:00,VALID,916.511,VALID,0,VALID,76.885,VALID,476.873,VALID,24.2547,VALID,40,VALID,0.939062,
2007-03-18, 01:46:00,VALID,916.509,VALID,0,VALID,75.986,VALID,477.552,VALID,24.3899,VALID,43,VALID,0.521019,
2007-03-18, 01:47:00,VALID,916.511,VALID,0,VALID,75.7024,VALID,479.539,VALID,24.5098,VALID,330,VALID,0.474964,
2007-03-18, 01:48:00,VALID,916.536,VALID,0,VALID,74.7271,VALID,480.252,VALID,24.439,VALID,270,VALID,0.738948,
2007-03-18, 01:49:00,VALID,916.537,VALID,0,VALID,74.9001,VALID,482.086,VALID,24.2404,VALID,256,VALID,0.578307,
2007-03-18, 01:50:00,VALID,916.537,VALID,0,VALID,75.2396,VALID,481.61,VALID,24.1761,VALID,256,VALID,0.622904,
2007-03-18, 01:51:00,VALID,916.552,VALID,0,VALID,75.8703,VALID,482.459,VALID,24.0981,VALID,264,VALID,0.470846,
2007-03-18, 01:52:00,VALID,916.55,VALID,0,VALID,77.0122,VALID,480.863,VALID,24.1043,VALID,310,VALID,0.684832,
2007-03-18, 01:53:00,VALID,916.562,VALID,0,VALID,77.1635,VALID,484.344,VALID,24.0367,VALID,315,VALID,0.620414,
2007-03-18, 01:54:00,VALID,916.57,VALID,0,VALID,77.0707,VALID,487.01,VALID,23.9655,VALID,328,VALID,0.489211,
2007-03-18, 01:55:00,VALID,916.568,VALID,0,VALID,77.119,VALID,485.533,VALID,23.9584,VALID,313,VALID,0.469893,
2007-03-18, 01:56:00,VALID,916.583,VALID,0,VALID,76.5697,VALID,483.207,VALID,23.9327,VALID,295,VALID,0.603795,
2007-03-18, 01:57:00,VALID,916.597,VALID,0,VALID,77.1711,VALID,481.491,VALID,23.9265,VALID,261,VALID,0.523819,
2007-03-18, 01:58:00,VALID,916.614,VALID,0,VALID,76.8443,VALID,477.993,VALID,23.894,VALID,261,VALID,0.67508,
2007-03-18, 01:59:00,VALID,916.627,VALID,0,VALID,77.6442,VALID,483.75,VALID,23.8515,VALID,274,VALID,0.487043,
2007-03-18, 02:00:00,VALID,916.658,VALID,0,VALID,77.8782,VALID,493.208,VALID,23.8742,VALID,284,VALID,0.372904,
2007-03-18, 02:01:00,VALID,916.672,VALID,0,VALID,77.7828,VALID,499.865,VALID,23.8733,VALID,283,VALID,0.479802,
2007-03-18, 02:02:00,VALID,916.685,VALID,0,VALID,77.737,VALID,509.714,VALID,23.8701,VALID,271,VALID,0.468205,
2007-03-18, 02:03:00,VALID,916.717,VALID,0,VALID,78.2367,VALID,516.947,VALID,23.9678,VALID,1,VALID,0.621194,
2007-03-18, 02:04:00,VALID,916.734,VALID,0,VALID,78.5076,VALID,522.755,VALID,24.1728,VALID,22,VALID,0.648828,
2007-03-18, 02:05:00,VALID,916.755,VALID,0,VALID,77.676,VALID,523.349,VALID,24.4325,VALID,349,VALID,0.391768,
2007-03-18, 02:06:00,VALID,916.767,VALID,0,VALID,76.15,VALID,529.632,VALID,24.6957,VALID,341,VALID,0.301339,
2007-03-18, 02:07:00,VALID,916.785,VALID,0,VALID,74.5707,VALID,536.781,VALID,24.7477,VALID,255,VALID,0.459162,
2007-03-18, 02:08:00,VALID,916.789,VALID,0,VALID,74.909,VALID,534.998,VALID,24.7379,VALID,249,VALID,0.312109,
2007-03-18, 02:09:00,VALID,916.788,VALID,0,VALID,75.8423,VALID,544.405,VALID,24.9469,VALID,274,VALID,0.271205,
2007-03-18, 02:10:00,VALID,916.809,VALID,0,VALID,74.9446,VALID,554.662,VALID,25.19,VALID,30,VALID,0.942587,
2007-03-18, 02:11:00,VALID,916.81,VALID,0,VALID,74.9191,VALID,556.818,VALID,25.3746,VALID,22,VALID,0.591751,
2007-03-18, 02:12:00,VALID,916.83,VALID,0,VALID,72.9685,VALID,558.075,VALID,25.3694,VALID,332,VALID,0.552827,
2007-03-18, 02:13:00,VALID,916.861,VALID,0,VALID,72.6162,VALID,564.205,VALID,25.2414,VALID,303,VALID,0.696289,
2007-03-18, 02:14:00,VALID,916.889,VALID,0,VALID,73.542,VALID,569.52,VALID,25.0925,VALID,269,VALID,0.357812,
2007-03-18, 02:15:00,VALID,916.925,VALID,0,VALID,73.3474,VALID,576.703,VALID,25.0606,VALID,266,VALID,0.548971,
2007-03-18, 02:16:00,VALID,916.949,VALID,0,VALID,73.0321,VALID,578.282,VALID,24.9076,VALID,308,VALID,0.680575,
2007-03-18, 02:17:00,VALID,916.97,VALID,0,VALID,74.0595,VALID,574.784,VALID,24.9017,VALID,294,VALID,0.24295,
2007-03-18, 02:18:00,VALID,916.995,VALID,0,VALID,74.3418,VALID,572.848,VALID,25.0766,VALID,249,VALID,0.336664,
2007-03-18, 02:19:00,VALID,917.008,VALID,0,VALID,73.589,VALID,574.105,VALID,25.1617,VALID,291,VALID,0.473366,
2007-03-18, 02:20:00,VALID,917.024,VALID,0,VALID,73.7772,VALID,576.652,VALID,25.1256,VALID,278,VALID,0.473899,
2007-03-18, 02:21:00,VALID,917.04,VALID,0,VALID,74.1791,VALID,581.729,VALID,25.1646,VALID,169,VALID,0.284784,
2007-03-18, 02:22:00,VALID,917.058,VALID,0,VALID,73.6895,VALID,586.807,VALID,25.2722,VALID,225,VALID,0.531064,
2007-03-18, 02:23:00,VALID,917.089,VALID,0,VALID,73.4123,VALID,593.123,VALID,25.1422,VALID,250,VALID,0.681891,
2007-03-18, 02:24:00,VALID,917.105,VALID,0,VALID,73.8764,VALID,600.629,VALID,24.9608,VALID,283,VALID,0.606889,
2007-03-18, 02:25:00,VALID,917.129,VALID,0,VALID,75.1493,VALID,611.004,VALID,24.9569,VALID,43,VALID,0.286272,
2007-03-18, 02:26:00,VALID,917.142,VALID,0,VALID,74.5923,VALID,620.344,VALID,25.1233,VALID,348,VALID,0.368304,
2007-03-18, 02:27:00,VALID,917.157,VALID,0,VALID,72.7599,VALID,624.046,VALID,25.074,VALID,257,VALID,0.722284,
2007-03-18, 02:28:00,VALID,917.182,VALID,0,VALID,73.5115,VALID,627.696,VALID,25.0122,VALID,256,VALID,0.368823,
2007-03-18, 02:29:00,VALID,917.201,VALID,0,VALID,74.689,VALID,633.045,VALID,25.1422,VALID,267,VALID,0.221037,
2007-03-18, 02:30:00,VALID,917.191,VALID,0,VALID,74.0163,VALID,638.445,VALID,25.4218,VALID,278,VALID,0.298264,
2007-03-18, 02:31:00,VALID,917.214,VALID,0,VALID,72.5336,VALID,642.402,VALID,25.6786,VALID,330,VALID,0.411204,
2007-03-18, 02:32:00,VALID,917.213,VALID,0,VALID,70.9263,VALID,644.949,VALID,25.7117,VALID,307,VALID,0.732195,
2007-03-18, 02:33:00,VALID,917.215,VALID,0,VALID,72.0873,VALID,646.307,VALID,25.6298,VALID,317,VALID,0.629261,
2007-03-18, 02:34:00,VALID,917.217,VALID,0,VALID,72.854,VALID,647.904,VALID,25.7537,VALID,1,VALID,0.426781,
2007-03-18, 02:35:00,VALID,917.224,VALID,0,VALID,72.5221,VALID,649.483,VALID,25.9386,VALID,331,VALID,0.286222,
2007-03-18, 02:36:00,VALID,917.226,VALID,0,VALID,70.7877,VALID,653.304,VALID,26.0102,VALID,262,VALID,0.496795,
2007-03-18, 02:37:00,VALID,917.22,VALID,0,VALID,70.0591,VALID,655.443,VALID,26.017,VALID,192,VALID,0.289418,
2007-03-18, 02:38:00,VALID,917.214,VALID,0,VALID,69.8162,VALID,660.554,VALID,26.1568,VALID,251,VALID,0.617932,
2007-03-18, 02:39:00,VALID,917.212,VALID,0,VALID,69.5771,VALID,664.732,VALID,26.0394,VALID,248,VALID,0.476926,
2007-03-18, 02:40:00,VALID,917.226,VALID,0,VALID,70.6084,VALID,668.484,VALID,26.0628,VALID,245,VALID,0.344477,
2007-03-18, 02:41:00,VALID,917.245,VALID,0,VALID,68.8053,VALID,674.19,VALID,26.0076,VALID,259,VALID,0.60831,
2007-03-18, 02:42:00,VALID,917.241,VALID,0,VALID,69.1321,VALID,677.128,VALID,25.7738,VALID,254,VALID,0.861607,
2007-03-18, 02:43:00,VALID,917.238,VALID,0,VALID,70.747,VALID,680.49,VALID,25.5518,VALID,264,VALID,0.497337,
2007-03-18, 02:44:00,VALID,917.245,VALID,0,VALID,71.8533,VALID,684.412,VALID,25.5599,VALID,323,VALID,0.640816,
2007-03-18, 02:45:00,VALID,917.261,VALID,0,VALID,71.6257,VALID,687.724,VALID,25.5957,VALID,306,VALID,0.621094,
2007-03-18, 02:46:00,VALID,917.257,VALID,0,VALID,71.3357,VALID,688.675,VALID,25.7416,VALID,354,VALID,0.810501,
2007-03-18, 02:47:00,VALID,917.258,VALID,0,VALID,69.043,VALID,693.022,VALID,25.6087,VALID,322,VALID,1.03397,
2007-03-18, 02:48:00,VALID,917.257,VALID,0,VALID,69.8391,VALID,697.267,VALID,25.4393,VALID,259,VALID,0.766513,
2007-03-18, 02:49:00,VALID,917.25,VALID,0,VALID,70.6885,VALID,701.801,VALID,25.504,VALID,267,VALID,0.771257,
2007-03-18, 02:50:00,VALID,917.25,VALID,0,VALID,71.6867,VALID,703.159,VALID,25.6838,VALID,352,VALID,0.714472,
2007-03-18, 02:51:00,VALID,917.247,VALID,0,VALID,71.0713,VALID,706.012,VALID,25.8073,VALID,289,VALID,0.599479,
2007-03-18, 02:52:00,VALID,917.254,VALID,0,VALID,71.0217,VALID,709.816,VALID,25.8759,VALID,348,VALID,1.03478,
2007-03-18, 02:53:00,VALID,917.271,VALID,0,VALID,71.9868,VALID,712.77,VALID,26.0089,VALID,1,VALID,0.300391,
2007-03-18, 02:54:00,VALID,917.26,VALID,0,VALID,69.8556,VALID,716.234,VALID,26.1978,VALID,286,VALID,0.738376,
2007-03-18, 02:55:00,VALID,917.252,VALID,0,VALID,69.2974,VALID,718.985,VALID,26.2137,VALID,37,VALID,1.12202,
2007-03-18, 02:56:00,VALID,917.242,VALID,0,VALID,68.9706,VALID,719.699,VALID,26.3243,VALID,34,VALID,0.28497,
2007-03-18, 02:57:00,VALID,917.249,VALID,0,VALID,69.759,VALID,723.281,VALID,26.5841,VALID,2,VALID,0.758721,
2007-03-18, 02:58:00,VALID,917.231,VALID,0,VALID,66.599,VALID,728.121,VALID,26.6849,VALID,345,VALID,0.556593,
2007-03-18, 02:59:00,VALID,917.222,VALID,0,VALID,66.4986,VALID,730.736,VALID,26.5584,VALID,321,VALID,1.15701,
2007-03-18, 03:00:00,VALID,917.192,VALID,0,VALID,68.4505,VALID,734.064,VALID,26.4934,VALID,25,VALID,1.5685,
2007-03-18, 03:01:00,VALID,917.188,VALID,0,VALID,69.2592,VALID,736.204,VALID,26.6173,VALID,25,VALID,0.759527,
2007-03-18, 03:02:00,VALID,917.17,VALID,0,VALID,67.6875,VALID,738.225,VALID,26.7467,VALID,35,VALID,1.15234,
2007-03-18, 03:03:00,VALID,917.185,VALID,0,VALID,69.5097,VALID,741.315,VALID,27.0105,VALID,34,VALID,0.664807,
2007-03-18, 03:04:00,VALID,917.187,VALID,0,VALID,67.2781,VALID,743.726,VALID,27.2544,VALID,6,VALID,0.792411,
2007-03-18, 03:05:00,VALID,917.212,VALID,0,VALID,65.4393,VALID,744.864,VALID,27.2248,VALID,342,VALID,0.665661,
2007-03-18, 03:06:00,VALID,917.211,VALID,0,VALID,66.8686,VALID,748.651,VALID,27.1731,VALID,338,VALID,1.03032,
2007-03-18, 03:07:00,VALID,917.185,VALID,0,VALID,66.2137,VALID,751.606,VALID,27.1604,VALID,40,VALID,1.99297,
2007-03-18, 03:08:00,VALID,917.205,VALID,0,VALID,65.9378,VALID,754.866,VALID,26.9663,VALID,33,VALID,1.35723,
2007-03-18, 03:09:00,VALID,917.217,VALID,0,VALID,68.8281,VALID,757.464,VALID,26.8973,VALID,26,VALID,0.814499,
2007-03-18, 03:10:00,VALID,917.209,VALID,0,VALID,65.5601,VALID,760.368,VALID,26.7799,VALID,328,VALID,1.15949,
2007-03-18, 03:11:00,VALID,917.202,VALID,0,VALID,67.2691,VALID,762.813,VALID,26.5002,VALID,349,VALID,1.46406,
2007-03-18, 03:12:00,VALID,917.183,VALID,0,VALID,67.6188,VALID,765.224,VALID,26.3842,VALID,28,VALID,2.59655,
2007-03-18, 03:13:00,VALID,917.201,VALID,0,VALID,68.4746,VALID,768.603,VALID,26.3055,VALID,2,VALID,1.59219,
2007-03-18, 03:14:00,VALID,917.197,VALID,0,VALID,69.7119,VALID,770.811,VALID,26.205,VALID,15,VALID,1.88586,
2007-03-18, 03:15:00,VALID,917.189,VALID,0,VALID,69.4614,VALID,773.782,VALID,26.2277,VALID,15,VALID,1.5958,
2007-03-18, 03:16:00,VALID,917.203,VALID,0,VALID,69.0176,VALID,777.23,VALID,26.3351,VALID,338,VALID,1.12754,
2007-03-18, 03:17:00,VALID,917.194,VALID,0,VALID,67.2691,VALID,778.588,VALID,26.1754,VALID,321,VALID,1.67028,
2007-03-18, 03:18:00,VALID,917.166,VALID,0,VALID,69.3915,VALID,780.694,VALID,25.8697,VALID,340,VALID,1.37649,
2007-03-18, 03:19:00,VALID,917.166,VALID,0,VALID,70.4469,VALID,782.443,VALID,25.9575,VALID,28,VALID,1.32832,
2007-03-18, 03:20:00,VALID,917.177,VALID,0,VALID,71.7312,VALID,783.394,VALID,26.2801,VALID,48,VALID,1.62393,
2007-03-18, 03:21:00,VALID,917.166,VALID,0,VALID,68.0308,VALID,786.331,VALID,26.5825,VALID,15,VALID,1.03084,
2007-03-18, 03:22:00,VALID,917.174,VALID,0,VALID,67.128,VALID,788.012,VALID,26.6733,VALID,143,VALID,0.835574,
2007-03-18, 03:23:00,VALID,917.167,VALID,0,VALID,68.2305,VALID,789.914,VALID,26.8135,VALID,203,VALID,0.607227,
2007-03-18, 03:24:00,VALID,917.176,VALID,0,VALID,66.332,VALID,791.833,VALID,26.8301,VALID,358,VALID,1.79978,
2007-03-18, 03:25:00,VALID,917.147,VALID,0,VALID,67.3213,VALID,795.467,VALID,26.442,VALID,344,VALID,1.15365,
2007-03-18, 03:26:00,VALID,917.127,VALID,0,VALID,69.6356,VALID,797.301,VALID,26.4785,VALID,36,VALID,1.53627,
2007-03-18, 03:27:00,VALID,917.12,VALID,0,VALID,68.1644,VALID,799.067,VALID,26.7256,VALID,24,VALID,1.13885,
2007-03-18, 03:28:00,VALID,917.101,VALID,0,VALID,68.1872,VALID,801.512,VALID,27.0288,VALID,32,VALID,1.038,
2007-03-18, 03:29:00,VALID,917.086,VALID,0,VALID,67.7002,VALID,804.365,VALID,27.3671,VALID,17,VALID,0.623798,
2007-03-18, 03:30:00,VALID,917.08,VALID,0,VALID,67.4078,VALID,804.857,VALID,27.6364,VALID,25,VALID,0.900534,
2007-03-18, 03:31:00,VALID,917.063,VALID,0,VALID,64.773,VALID,810.054,VALID,27.6924,VALID,357,VALID,0.811257,
2007-03-18, 03:32:00,VALID,917.067,VALID,0,VALID,66.1158,VALID,451.283,VALID,27.6924,VALID,288,VALID,0.641158,
2007-03-18, 03:33:00,VALID,917.044,VALID,0,VALID,67.1369,VALID,819.155,VALID,27.8902,VALID,41,VALID,1.40645,
2007-03-18, 03:34:00,VALID,917.032,VALID,0,VALID,63.785,VALID,820.174,VALID,27.9751,VALID,12,VALID,1.87991,
2007-03-18, 03:35:00,VALID,917.016,VALID,0,VALID,64.9828,VALID,821.702,VALID,27.6754,VALID,343,VALID,1.27744,
2007-03-18, 03:36:00,VALID,917.02,VALID,0,VALID,65.8068,VALID,821.38,VALID,27.5623,VALID,4,VALID,1.25324,
2007-03-18, 03:37:00,VALID,917,VALID,0,VALID,64.024,VALID,821.159,VALID,27.481,VALID,6,VALID,0.810764,
2007-03-18, 03:38:00,VALID,916.982,VALID,0,VALID,66.5354,VALID,821.855,VALID,27.6111,VALID,22,VALID,1.28232,